Погода в Верхнеднепровском

Россия / Смоленская область     54°58′53″N   33°20′41″E
темп.,
°C
ветер,
м/с
пор.,
м/с
влажн.,
%
обл.,
%
осадки,
мм/ч
давл.,
гПа
погр.,
м
2 декабря, чт
чт200:00−10зюз389667 0.0 1000180
03:00−8юз3797100 0.1 1001201
06:00−6ююз3792100 0.1 1000247
09:00−5ю41092100 0.1 999405
12:00−4ююв71695100 0.5 996656
15:00−2ю61496100 2.4 995692
18:00+1ююз61399100 0.5 995613
21:00+2ююз61399100 0.6 995517
3 декабря, пт
пт300:00+2юз71498100 0.6 996845
03:00+2юз7138599 0.6 997774
06:000юз6138774 0.0 998657
09:00−1юз51190100 0.1 1000475
12:00−1юз41091100 0.0 1001554
15:00−1юз4994100 0.3 1000575
18:00−1юз4994100 0.6 1001491
21:00−1зюз51091100 0.6 1001747
4 декабря, сб
сб400:00−3зюз6138974 0.0 1002590
03:00−4юз614896 0.0 1004534
06:00−4зюз61391100 0.0 1004711
09:00−3з61182100 0.1 1007998
12:00−3зюз6108581 0.1 10091041
15:00−3зюз5108888 0.1 1010677
18:00−5юз389245 0.0 1012212
21:00−6юз279760 0.0 1013147
5 декабря, вс
вс500:00−5ююз259786 0.1 1015142
03:00−3ююз2596100 0.2 1015247
06:00−2ю2596100 0.0 1015187
09:00−3ююв3695100 0.0 1016202
12:00−2ююв3892100 0.0 1017347
15:00−2юв4892100 0.0 1016388
18:00−2вюв4893100 0.0 1016335
21:00−2вюв51092100 0.1 1016469
6 декабря, пн
пн600:00−2вюв51189100 0.0 1016470
03:00−3вюв51189100 0.1 1015556
06:00−3вюв51296100 1.5 1015560
09:00−3юв41096100 2.1 1016444
12:00−2вюв4896100 0.3 1016380
15:00−1вюв369894 1.0 1017294
18:00−1вюв3698100 0.3 1017221
21:00−1вюв2598100 0.3 1017216